Starlink 32482

operational
NORAD ID: 62141 Int'l Des: 2024-224 Owner: SPXS Country: US Constellation: starlink
LEOCIRCULAR

Starlink 32482について

説明を読み込み中...

リアルタイム位置

3D地球を読み込み中...

次回通過

高度履歴

Altitude vs Time

uPlot chart will show altitude changes over time

軌道要素

1 62141U 24224C 25305.93376216 .00036744 00000-0 13381-2 0 9992
2 62141 43.0002 159.4095 0001555 274.5285 85.5389 15.27579392 52787
Epoch: Nov 1, 2025 • Age: 49 hours

現在のステータス

高度 482.4 km
速度 7.63 km/s
衛星直下点 16.44°N, 90.02°W
打ち上げ日 Nov 30, 2024
運用期間 0.9 years
タイプ internet

技術仕様

分類 Payload
質量 730.00 kg
乾燥質量 700.00 kg
総質量 730.00 kg
長さ 0.30 m
直径 4.10 m
スパン 29.00 m
形状 Box + pan
製造者 SPXS
バスタイプ Starlink V2M
フェーズステータス In Orbit
所有者/国 SPXS/US

大規模コンステレーション

Loading constellations...